Tracking 29892 objects as of 21-Nov-2024
HD Live streaming from Space Station
objects crossing your sky now

DMSP 5D-2 F13 DEB

Track DMSP 5D-2 F13 DEB now!
10-day predictions


NORAD ID: 40498
Int'l Code: 1995-015CM
Perigee: 793.2 km
Apogee: 837.8 km
Inclination: 98.9 °
Period: 101.0 minutes
Semi major axis: 7186 km
RCS: Unknown
Launch date: March 24, 1995
Source: United States (US)
Launch site: AIR FORCE WESTERN TEST RANGE (AFWTR)

Note: This is SATELLITE DEBRIS
Your satellite tracking list
Your tracking list is empty




NASA's NSSDC Master Catalog

Two Line Element Set (TLE):
1 40498U 95015CM  24320.30994220  .00007992  00000-0  34100-2 0  9992
2 40498  98.9183 331.5274 0031036 133.1038 227.2745 14.25049422499556
Source of the keplerian elements: AFSPC